Flag for Romania Weather past 2 weeks in Iasi, Romania

Now
63 °F

Clear.


Feels Like: 63 °F
Forecast: 66 / 84 °F
Wind: 6 mph from West

Location: Iasi Airport

Current Time: Jun 3, 2015 at 5:09:11 AM

Latest Report: Jun 3, 2015 at 3:00 AM


Visibility: 10 mi

Pressure: 30.12 "Hg

Humidity: 73%

Dew point: 54 °F

Location of IasiLocation

Historic Weather in Iasi — Graph

°F

Iasi temperature yesterday

Maximum temperature yesterday: 86 °F (at 4:00 PM)
Minimum temperature yesterday: 63 °F (at 5:00 AM)
Average temperature yesterday: 75 °F

Past Weeks' High & Low Weather Summary

 TemperatureHumidityPressure
High86 °F (Jun 2, 4:00 PM)100% (May 23, 5:00 AM)30.12 "Hg (May 23, 5:00 AM)
Low48 °F (May 30, 3:00 AM)27% (Jun 1, 4:00 PM)29.59 "Hg (May 26, 4:30 PM)
Average69 °F56%29.92 "Hg
* Reported May 19 3:00 AM — Jun 3 3:00 AM, Iasi, Weather by CustomWeather, © 2015

Note: Actual official high and low records may vary slightly from our data, if they occured in-between our weather recording intervals... More about our weather records

Advertising

Iasi weather history for previous 24 hours

 ConditionsComfort  
Time TempWeatherWind HumidityBarometerVisibility
3:00 AM
Wed, Jun 3
63 °FClear.6 mph73%30.12 "Hg10 mi
2:00 AM66 °FClear.7 mph64%30.09 "Hg10 mi
1:00 AM68 °FClear.6 mph60%30.09 "Hg10 mi
12:00 AM70 °FClear.6 mph57%30.09 "Hg10 mi
11:00 PM
Tue, Jun 2
73 °FClear.7 mph47%30.09 "Hg10 mi
10:00 PM73 °FClear.6 mph50%30.09 "Hg10 mi
9:00 PM75 °FPassing clouds.5 mph44%30.09 "HgN/A
8:30 PM77 °FPassing clouds.5 mph42%30.07 "HgN/A
8:00 PM77 °FPassing clouds.8 mph44%30.07 "HgN/A
7:30 PM79 °FSunny.12 mph42%30.07 "Hg10 mi
7:00 PM81 °FPassing clouds.9 mph39%30.07 "HgN/A
6:30 PM84 °FPassing clouds.6 mph31%30.07 "HgN/A
6:00 PM86 °FSunny.3 mph29%30.07 "Hg10 mi
5:30 PM84 °FPassing clouds.6 mph33%30.07 "HgN/A
5:00 PM84 °FSunny.3 mph33%30.07 "Hg10 mi
4:30 PM84 °FPassing clouds.5 mph37%30.07 "HgN/A
4:00 PM86 °FSunny.3 mph33%30.07 "Hg10 mi
3:30 PM84 °FPassing clouds.5 mph33%30.07 "HgN/A
3:00 PM84 °FSunny.3 mph37%30.07 "Hg10 mi
2:30 PM84 °FSunny.3 mph37%30.07 "Hg10 mi
2:00 PM82 °FPassing clouds.5 mph37%30.09 "HgN/A
1:30 PM82 °FSunny.5 mph40%30.09 "Hg10 mi
1:00 PM82 °FPassing clouds.6 mph40%30.09 "HgN/A
12:30 PM81 °FPassing clouds.3 mph42%30.09 "HgN/A
12:00 PM79 °FPassing clouds.5 mph45%30.09 "HgN/A
11:30 AM79 °FPassing clouds.5 mph48%30.09 "HgN/A
11:00 AM79 °FSunny.2 mph48%30.12 "Hg10 mi
10:30 AM75 °FSunny.2 mph50%30.12 "Hg10 mi
10:00 AM73 °FPassing clouds.3 mph53%30.12 "HgN/A
9:30 AM72 °FPassing clouds.3 mph57%30.12 "HgN/A
9:00 AM72 °FPassing clouds.3 mph57%30.09 "HgN/A
8:30 AM70 °FPassing clouds.3 mph60%30.09 "HgN/A
8:00 AM68 °FPassing clouds.2 mph64%30.09 "HgN/A
7:30 AM68 °FSunny.1 mph60%30.09 "Hg10 mi
6:30 AM63 °FSunny.3 mph73%30.09 "Hg10 mi
6:00 AM63 °FClear.5 mph73%30.07 "Hg10 mi
5:30 AM63 °FClear.7 mph73%30.07 "Hg10 mi
5:00 AM63 °FClear.6 mph73%30.07 "Hg10 mi
Weather by CustomWeather, © 2015

See weather overviewHow to use our weather pages